Regional Weather Roundup
Issued by NWS Wakefield, VA

Home | Current Version | Previous Version | Graphics & Text | Print | Product List | Glossary On
Versions: 1 2 3 4 5 6 7 8 9 10 11 12 13 14 15 16 17 18 19 20 21 22 23 24 25 26 27 28 29 30 31 32 33 34 35 36 37 38 39 40 41 42 43 44 45 46 47 48 49 50
000
ASUS41 KAKQ 280014
RWRAKQ

REGIONAL WEATHER ROUNDUP
NATIONAL WEATHER SERVICE WAKEFIELD VA
800 PM EDT THU AUG 27 2015

Note: "fair" indicates few or no clouds below 12,000 feet with no
significant weather and/or obstructions to visibility. * = Denotes
station may not report precipitation (e.g., rain,snow,etc.),
thunder or fog.

VAZ042-051-052>054-056-280100-
NORTHERN VIRGINIA

CITY           SKY/WX    TMP DP  RH WIND       PRES   REMARKS
WASH NATIONAL  PTCLDY    76  55  48 N8        30.10R
DULLES         PTCLDY    73  54  51 N9        30.10S
FORT BELVOIR   CLEAR     70  60  71 CALM      30.10R
QUANTICO       PTCLDY    72  62  71 NW7       30.10R
FREDERICKSBRG* CLEAR     74  61  63 CALM      30.09R
STAFFORD*      CLEAR     67  60  79 CALM      30.13S
WARRENTON      CLEAR     67  60  79 CALM      30.10S
CULPEPER*      CLEAR     69  60  74 CALM      30.11R
MANASSAS*      CLEAR     73  55  53 N3        30.10R
LEESBURG*      CLEAR     73  59  60 N5        30.12R
WINCHESTER     CLEAR     72  54  53 CALM      30.13R
FRONT ROYAL*   MOCLDY    70  55  60 CALM      30.12R
LURAY*         FAIR      68  54  60 NE3       30.12R
$$

VAZ048-049-060>072-079>083-280100-
CENTRAL AND SOUTH CENTRAL VIRGINIA

CITY           SKY/WX    TMP DP  RH WIND       PRES   REMARKS
RICHMOND       PTCLDY    74  60  61 E3        30.09R
CHESTERFIELD*  FAIR      75  52  43 E3        30.10S
PETERSBURG*    CLEAR     68  68  99 CALM      30.09R
HANOVER        CLEAR     69  62  78 CALM      30.10S
TAPPAHANNOCK*  CLEAR     68  60  75 CALM      30.09F
QUINTON*       FAIR      70  65  83 CALM      30.08S
CHARLOTTSVILLE PTCLDY    72  59  63 N3        30.10R
GORDONSVILLE*  CLOUDY    70  63  78 CALM      30.10R
ORANGE*        CLEAR     72  59  64 CALM      30.11S
LOUISA*        CLEAR     70  59  68 CALM      30.09R
BUMPASS*       FAIR      68  60  75 CALM      30.10R
FARMVILLE*     CLEAR     74  57  54 CALM      30.07S
CREWE*         FAIR     N/A N/A N/A CALM      30.08S
FORT PICKETT*  FAIR      70  63  78 E3        30.09R
CHASE CITY*    FAIR      74  65  74 CALM      30.09R
CLARKSVILLE*   FAIR      75  63  64 E3        30.08R
SOUTH HILL*    CLEAR     69  65  89 CALM      30.14S
LAWRENCEVILLE* FAIR      70  64  83 CALM      30.09R
EMPORIA*       PTCLDY    72  64  78 CALM      30.10S
$$

VAZ088>098-280100-
SOUTHEAST VIRGINIA

CITY           SKY/WX    TMP DP  RH WIND       PRES   REMARKS
NORFOLK        PTCLDY    75  60  59 E5        30.08S
VIRGINIA BEACH MOCLDY    76  60  57 NE5       30.08R
NORFOLK NAVAL  MOCLDY    75  57  53 NE3       30.10S
WEST POINT*    MOCLDY    73  59  61 CALM      30.10S
SALUDA*        FAIR      71  59  66 E3        30.08F
NEWPORT NEWS   MOCLDY    72  57  59 NE3       30.08F
LANGLEY AFB    MOCLDY    73  59  60 NE3       30.08S
FORT EUSTIS    MOCLDY    76  57  52 E2        30.07S
WILLIAMSBURG*  PTCLDY    75  66  73 CALM      30.09S
HR EXEC AP*      N/A     70  61  73 NE3       30.11R
FRANKLIN*      MOCLDY    72  62  70 CALM      30.08S
WAKEFIELD      PTCLDY    73  63  70 CALM      30.08S
$$

VAZ020-022-025-037-045-280100-
WEST CENTRAL AND SOUTHWEST VIRGINIA

CITY           SKY/WX    TMP DP  RH WIND       PRES   REMARKS
STAUNTON*      CLOUDY    76  57  51 CALM      30.13R
WAYNESBORO*    CLOUDY    74  57  55 CALM      30.13R
HOT SPRINGS VA PTCLDY    64  50  60 S3        30.21R
LYNCHBURG      CLEAR     69  58  67 CALM      30.11R
DANVILLE       CLEAR     73  62  68 E3        30.08R
SOUTH BOSTON*  FAIR      73  62  66 E3        30.08S
MARTINSVILLE   CLOUDY    72  65  79 CALM      30.11S
ROANOKE        PTCLDY    76  56  49 E7        30.12R
BLACKSBURG     CLOUDY    71  60  67 SE5       30.17R
DUBLIN*        CLOUDY    72  61  68 CALM      30.15R
MARION*        PTCLDY    71  60  68 CALM      30.17R
HILLSVILLE*    CLOUDY    67  59  74 CALM      30.15S
RICHLANDS*     FAIR      67  28  23 N3        30.17R
WISE*          CLEAR     66  55  68 N6        30.18S
ABINGDON*      CLEAR     74  56  52 CALM      30.12R
$$

MDZ021>025-VAZ099-100-280100-
SOUTHERN MARYLAND AND THE DELMARVA PENINSULA

CITY           SKY/WX    TMP DP  RH WIND       PRES   REMARKS
PATUXENT RIVER MOCLDY    66  61  84 CALM      30.09S
BAY BRIDGE APT   N/A     72  54  53 CALM      30.10R
LEONARDTOWN    MOCLDY    68  55  64 CALM      30.11R
DOVER          PTCLDY    71  59  67 NW6       30.07R
GEORGETOWN     MOCLDY    72  58  61 CALM      30.09R
EASTON         PTCLDY    72  61  68 CALM      30.13R
CAMBRIDGE      PTCLDY    72  59  64 CALM      30.09R
SALISBURY      MOCLDY    73  58  59 CALM      30.08S
OCEAN CITY     MOCLDY    73  61  65 CALM      30.08S
WALLOPS ISLAND MOCLDY    74  62  66 SE6       30.09S
ACCOMACK*      MOCLDY    66  64  94 CALM      30.09S
$$

NCZ012>017-030>032-280100-
NORTH CENTRAL AND EASTERN NORTH CAROLINA

CITY           SKY/WX    TMP DP  RH WIND       PRES   REMARKS
ROANOKE RAPIDS MOCLDY    73  61  64 CALM      30.08S
RALEIGH        PTCLDY    76  60  57 E5        30.08R
ELIZABETH CITY CLOUDY    74  62  66 N9        30.08R
AHOSKIE*       MOCLDY    70  64  80 CALM      30.09R
EDENTON*       CLOUDY    72  64  76 N5        30.08S
CURRITUCK*     CLOUDY    76  57  52 NE6       30.09R
KILL DEVIL HLS CLOUDY    76  62  62 NE6       30.06R
MANTEO         CLOUDY    75  63  66 NE10      30.07R
CAPE HATTERAS  LGT RAIN  71  70  96 NE5       30.05R
TARBORO*       CLOUDY    73  66  78 CALM      30.09R
GOLDSBORO      PTCLDY    73  67  81 NE8       30.06R
WASHINGTON     MOCLDY    71  66  84 NE3       30.07R
GREENVILLE     PTCLDY    72  66  83 NE3       30.09R
NEW BERN       MOCLDY    73  64  73 NE9       30.07R
WILMINGTON     MOCLDY    76  71  85 N9        30.03R
$$

VAZ048-280100-
ELSEWHERE

CITY           SKY/WX    TMP DP  RH WIND       PRES   REMARKS
HARRISBURG PA  MOCLDY    72  56  57 CALM      30.10R
BALTIMORE      PTCLDY    73  56  54 N3        30.10R
ANNAPOLIS      CLEAR     73  61  65 NE3       30.09R
ANDREWS AFB    CLOUDY    73  59  62 E3        30.09R
PHILADELPHIA   PTCLDY    76  51  41 N7        30.09R
HENDERSON NC   PTCLDY    73  61  65 CALM      30.09R
GREENSBORO     PTCLDY    75  58  55 E3        30.08R
ROCKY MOUNT    MOCLDY    75  62  64 CALM      30.08R
$$

VAZ100-280100-
MARINE

STATION/POSITION TIME  TEMP    WIND        PRES    WAVE   SWELL
                       AIR SEA DIR/SP/G            HT/PER HT/PER
                 (UTC) (F)     (DEG/KT/KT) (MB)    (FT/S) (FT/S)
BRANDYWINE LGT   2300   76 75  330/  8/ 10 1018.5R
CAPE MAY NJ      2300   76 80  290/  7/  8 1017.9R
LEWES DE         2300   75 77  340/  3/  4 1018.3R
15NM E FENWICK I 2350   75 78   50/  2/  4 1018.7R   2/10   2/10
OCEAN-CITY-INLET 2300   74 78  190/  3/  4 1017.9R
WACHAPREAGUE VA  2330   74 79   CALM  /  2 1018.8R
THOMAS POINT MD  2300   75 80   40/  8/ 10 1019.2
GOOSES REEF MD   0000   77 79   40/  6/  8 1019.9R
COVE POINT MD    2300   76      10/  4/  6 1019.5R
SOLOMONS ISLAND  2300      82                N/A
BISHOPS HEAD MD  2300   77 78  360/  4/  6 1017.8R
PINEY POINT MD   2300          120/  5/  6   N/A
POTOMAC MD       0000   77 80   60/  2/  4 1017.8F   0
CAMBRIDGE MD     2300   77 80  350/  7/  9 1017.8R
LEWISETTA VA     2300   76 80   90/  5/  6 1018.4S
RAPPAHANNOCK LGT 2300           10/  7/  8 1019.3R
STINGRAY PT      0000   76 80   60/  6/  8 1019.0F   1
YORK RVR RNG VA  2300   76      60/  9/ 10 1018.3R
YORKTOWN VA      2300   77 80   60/  8/  9 1018.5R
JAMESTOWN VA     0000   76 82   90/  4/  6   N/A
DOMINION TERM VA 2300   77      30/  5/  7 1018.6R
KIPTOPEKE VA     2300      80   10/  6/  8   N/A
CHES BAY BRIDGE  2300   76 79   40/  4/  6 1018.2R
CAPE HENRY VA    2300   76      30/  5/  7   N/A
CHESAPEAKE LGHT  2300   75      50/  9/ 10 1019.1R
WILLOUBY STN VA  2300   76      20/  8/  9 1019.6R
CAPE HENRY BUOY  2328      79                N/A     3/10   2/11
1ST LANDING BUOY 0000      79              1018.4R   1/ 4
CAPE CHARLES BUO 2326      79                N/A     3/10   2/10
OFFSHORE WE BUOY 2311      78                N/A     3/10   3/10
64NM E OF VA BCH 2350   76 78   30/ 14/ 17 1017.5R   4/ 8   3/ 8
DUCK PIER NC     2300   76 78   30/ 15/ 17 1017.3R
44100 DUCK FRF   2324      79                N/A     4/ 5   2/12
44056 DUCK FRF   2311      78                N/A     4/10   2/11
OREGON INLET NC  2300   77 78   30/ 13/ 19 1017.0S
HATTERAS NC      2300   73 81   70/  8/ 12 1016.5R



USA.gov is the U.S. government's official web portal to all federal, state and local government web resources and services.